EW8848 Plant City FL US current weather conditions

sailwx.info

Wind from 048

Air temperature 26.1° C
Dewpoint 23.6° C

Last reported at 2019-Jul-17 03:57 UTC.
Time now 2019-Jul-17 05:10 UTC

Location: N 28°01' W 082°06'.
View on Google Maps.

See reports from other nearby stations

  
Tides and Currents Weather Stations Pressure Air Temp Water Temp Dewpoint Dewpoint Depression Visibility Wind Speed Wind Dir Waves Ship Positions
date/time (UTC)wind fromknots sea level pressurealtimeterstation pressurevisibilityair tempwater tempwave heightnotes
2019-Jul-17 03:57 048 26.1
2019-Jul-17 03:46 048 25.6
2019-Jul-17 03:42 048 26.1
2019-Jul-17 03:27 048 26.1
2019-Jul-17 03:12 048 26.1
2019-Jul-17 02:57 048 26.1
2019-Jul-17 02:42 048 26.1
2019-Jul-17 02:27 048 26.7
2019-Jul-17 02:12 200 0 gusting 1 26.7
2019-Jul-17 01:57 195 26.7
2019-Jul-17 01:42 195 26.7
2019-Jul-17 01:26 195 26.7
2019-Jul-17 01:11 198 27.2
2019-Jul-17 01:01 198 27.2
2019-Jul-17 00:56 197 0 gusting 5 27.8
2019-Jul-17 00:41 175 2 gusting 7 27.8
2019-Jul-17 00:26 185 1 gusting 5 28.9
2019-Jul-17 00:11 184 29.4
2019-Jul-16 23:56 169 30.0
2019-Jul-16 23:41 167 30.6
2019-Jul-16 23:26 167 30.6
2019-Jul-16 23:11 167 31.1
2019-Jul-16 22:56 167 2 gusting 5 31.7
2019-Jul-16 22:41 170 0 gusting 6 32.8
2019-Jul-16 22:30 161 2 gusting 6 33.3
2019-Jul-16 22:11 113 0 gusting 3 34.4
2019-Jul-16 21:56 040 34.4
2019-Jul-16 21:41 047 34.4
2019-Jul-16 21:26 060 33.9
2019-Jul-16 21:11 082 33.9
2019-Jul-16 20:56 088 33.9
2019-Jul-16 20:41 088 32.8
2019-Jul-16 20:26 088 33.3
2019-Jul-16 20:15 088 0 gusting 4 33.9
2019-Jul-16 20:11 034 0 gusting 4 34.4
2019-Jul-16 19:56 106 33.9
2019-Jul-16 19:41 113 0 gusting 2 33.9
2019-Jul-16 19:26 071 0 gusting 3 33.9
2019-Jul-16 19:11 089 0 gusting 2 33.9
2019-Jul-16 18:56 176 0 gusting 2 33.3
2019-Jul-16 18:41 178 1 gusting 4 33.9
2019-Jul-16 18:26 178 0 gusting 3 33.3
2019-Jul-16 18:11 073 0 gusting 5 33.3
2019-Jul-16 18:01 185 33.3
2019-Jul-16 17:56 160 0 gusting 2 33.3
2019-Jul-16 17:41 011 0 gusting 3 33.9
2019-Jul-16 17:26 121 0 gusting 4 33.3
2019-Jul-16 17:11 060 0 gusting 2 32.8
2019-Jul-16 16:56 048 0 gusting 2 32.8
2019-Jul-16 16:41 088 0 gusting 2 32.8
2019-Jul-16 16:26 092 0 gusting 3 31.7
2019-Jul-16 16:11 157 0 gusting 2 31.7
2019-Jul-16 15:56 081 31.1
2019-Jul-16 15:45 188 31.1
2019-Jul-16 15:41 188 1 gusting 3 31.1
2019-Jul-16 15:26 138 0 gusting 2 30.6
2019-Jul-16 15:11 160 30.6
2019-Jul-16 14:56 160 0 gusting 4 30.6
2019-Jul-16 14:41 182 1 gusting 2 29.4
2019-Jul-16 14:26 180 2 gusting 4 29.4
2019-Jul-16 14:11 165 1 gusting 4 29.4
2019-Jul-16 13:56 162 0 gusting 4 28.9
2019-Jul-16 13:41 164 0 gusting 4 28.9
2019-Jul-16 13:30 177 0 gusting 4 28.3
2019-Jul-16 13:25 167 2 gusting 6 28.3
2019-Jul-16 13:10 169 1 gusting 4 27.8
2019-Jul-16 12:55 162 26.7
2019-Jul-16 12:40 182 26.1
2019-Jul-16 12:25 186 0 gusting 2 26.1
2019-Jul-16 12:10 168 25.6
2019-Jul-16 11:55 161 25.6
2019-Jul-16 11:40 161 25.6
2019-Jul-16 11:25 005 25.6
2019-Jul-16 11:10 005 25.6
2019-Jul-16 10:55 005 25.6
2019-Jul-16 10:45 005 25.0
2019-Jul-16 10:40 005 25.6
2019-Jul-16 10:25 005 25.6
2019-Jul-16 10:10 005 25.6
2019-Jul-16 09:55 005 25.6
2019-Jul-16 09:40 005 25.6
2019-Jul-16 09:25 005 25.6
2019-Jul-16 09:10 005 25.6
2019-Jul-16 08:55 005 25.6
2019-Jul-16 08:40 005 25.6
2019-Jul-16 08:25 005 25.6
2019-Jul-16 08:10 005 25.6
2019-Jul-16 07:55 005 25.6
2019-Jul-16 07:40 005 25.6
2019-Jul-16 07:25 005 26.1
2019-Jul-16 07:10 005 26.1
2019-Jul-16 06:55 005 26.1
2019-Jul-16 06:40 005 25.6
2019-Jul-16 06:25 005 26.1
2019-Jul-16 06:10 005 26.1
2019-Jul-16 05:55 005 26.1
2019-Jul-16 05:40 005 26.1
2019-Jul-16 05:25 005 26.1
2019-Jul-16 05:10 005 26.1
2019-Jul-16 04:55 005 26.1
2019-Jul-16 04:40 005 26.1
2019-Jul-16 04:25 005 26.1
2019-Jul-16 04:10 005 26.1
2019-Jul-16 03:55 005 26.1
2019-Jul-16 03:40 005 26.7
2019-Jul-16 03:25 005 26.7
2019-Jul-16 03:10 005 26.7
2019-Jul-16 02:55 005 26.7
2019-Jul-16 02:40 005 27.2
2019-Jul-16 02:24 005 27.2
2019-Jul-16 02:09 005 27.2
2019-Jul-16 01:54 005 27.8
2019-Jul-16 01:39 005 27.8
2019-Jul-16 01:24 005 27.8
2019-Jul-16 01:15 347 27.8
2019-Jul-16 01:09 347 27.8
2019-Jul-16 00:54 347 28.3
2019-Jul-16 00:39 347 28.3
2019-Jul-16 00:24 347 28.9
2019-Jul-16 00:09 347 28.9
2019-Jul-15 23:54 347 28.9
2019-Jul-15 23:39 347 29.4
2019-Jul-15 23:24 347 29.4
2019-Jul-15 23:09 347 30.0
2019-Jul-15 22:54 040 0 gusting 4 30.6
2019-Jul-15 22:39 042 30.6
2019-Jul-15 22:30 115 30.6
2019-Jul-15 22:24 167 0 gusting 5 30.6
2019-Jul-15 22:09 157 30.6
2019-Jul-15 21:54 175 30.6
2019-Jul-15 21:39 169 2 gusting 4 30.0
2019-Jul-15 21:23 192 2 gusting 6 30.6
2019-Jul-15 21:08 159 2 gusting 5 31.1
2019-Jul-15 20:53 186 3 gusting 7 32.2
2019-Jul-15 20:38 189 33.3
2019-Jul-15 20:23 134 33.9
2019-Jul-15 20:16 168 33.9
2019-Jul-15 20:08 120 33.9
2019-Jul-15 19:53 120 33.9
2019-Jul-15 19:38 061 33.9
2019-Jul-15 19:23 083 33.3
2019-Jul-15 19:08 046 33.3
2019-Jul-15 18:53 115 33.3
2019-Jul-15 18:38 095 33.9
2019-Jul-15 18:23 115 33.3
2019-Jul-15 18:08 165 33.3
2019-Jul-15 18:01 166 32.8
2019-Jul-15 17:53 158 32.8
2019-Jul-15 17:38 173 0 gusting 4 32.8
2019-Jul-15 17:23 167 0 gusting 4 33.3
2019-Jul-15 17:08 188 0 gusting 5 32.8
2019-Jul-15 16:53 161 0 gusting 3 33.3
2019-Jul-15 16:38 082 32.8
2019-Jul-15 16:23 076 32.2
2019-Jul-15 16:08 046 31.7
2019-Jul-15 15:53 114 31.7
2019-Jul-15 15:47 144 31.1
2019-Jul-15 15:38 143 31.1
2019-Jul-15 15:23 159 31.1
2019-Jul-15 15:08 156 30.6
2019-Jul-15 14:53 159 30.6
2019-Jul-15 14:38 171 29.4
2019-Jul-15 14:23 171 29.4
2019-Jul-15 14:08 177 29.4
2019-Jul-15 13:53 174 28.9
2019-Jul-15 13:38 183 28.3
2019-Jul-15 13:23 182 28.3
2019-Jul-15 13:08 175 27.8
2019-Jul-15 12:52 163 26.1
2019-Jul-15 12:37 158 25.6
2019-Jul-15 12:22 155 25.6
2019-Jul-15 12:07 131 25.0
2019-Jul-15 11:52 131 25.0
2019-Jul-15 11:37 131 24.4
2019-Jul-15 11:22 131 24.4
2019-Jul-15 11:07 131 24.4
2019-Jul-15 10:52 131 25.0
2019-Jul-15 10:45 131 24.4
2019-Jul-15 10:37 131 25.0
2019-Jul-15 10:22 131 25.0
2019-Jul-15 10:07 131 25.0
2019-Jul-15 09:52 131 25.0
2019-Jul-15 09:37 131 25.0
2019-Jul-15 09:22 131 25.0
2019-Jul-15 09:07 131 25.6
2019-Jul-15 08:52 131 25.6
2019-Jul-15 08:37 131 25.6
2019-Jul-15 08:22 131 25.6
2019-Jul-15 08:07 131 25.6
2019-Jul-15 08:01 131 25.6
2019-Jul-15 07:52 131 25.6
2019-Jul-15 07:37 131 26.1
2019-Jul-15 07:22 131 26.1
2019-Jul-15 07:07 131 26.1
2019-Jul-15 06:52 131 26.1
2019-Jul-15 06:37 131 26.7
2019-Jul-15 06:22 131 26.7
2019-Jul-15 06:07 131 26.7
2019-Jul-15 05:52 131 26.7
2019-Jul-15 05:37 131 26.7
2019-Jul-15 05:22 131 27.2
2019-Jul-15 05:07 131 27.2